This is the latest recevied weather packets stored in our database for station/object SR6WVX. If no packets are shown the sender has not sent any weather packets the latest 10 day(s).
| Time | Temp. | Humidity | Pressure | Rain* | Wind** | Luminosity | Snow |
|---|---|---|---|---|---|---|---|
| 1777538147 | 16.11° C | 30% | 1027.3 hPa | 0 mm | - | - | - |
| 1777537847 | 16.11° C | 31% | 1027.4 hPa | 0 mm | - | - | - |
| 1777537547 | 16.11° C | 31% | 1027.4 hPa | 0 mm | - | - | - |
| 1777537246 | 16.11° C | 32% | 1027.4 hPa | 0 mm | - | - | - |
| 1777536946 | 15.56° C | 33% | 1027.5 hPa | 0 mm | - | - | - |
| 1777536646 | 15° C | 32% | 1027.4 hPa | 0 mm | - | - | - |
| 1777536346 | 15° C | 31% | 1027.5 hPa | 0 mm | - | - | - |
| 1777536045 | 15° C | 31% | 1027.5 hPa | 0 mm | - | - | - |
| 1777535745 | 14.44° C | 34% | 1027.5 hPa | 0 mm | - | - | - |
| 1777535445 | 14.44° C | 34% | 1027.5 hPa | 0 mm | - | - | - |
| 1777535145 | 13.89° C | 34% | 1027.5 hPa | 0 mm | - | - | - |
| 1777534844 | 13.89° C | 34% | 1027.5 hPa | 0 mm | - | - | - |
| 1777534544 | 13.89° C | 35% | 1027.4 hPa | 0 mm | - | - | - |
| 1777534244 | 13.89° C | 35% | 1027.4 hPa | 0 mm | - | - | - |
| 1777533944 | 13.89° C | 34% | 1027.5 hPa | 0 mm | - | - | - |
| 1777533643 | 14.44° C | 32% | 1027.4 hPa | 0 mm | - | - | - |
| 1777533343 | 14.44° C | 38% | 1027.2 hPa | 0 mm | - | - | - |
| 1777533043 | 13.89° C | 38% | 1027.4 hPa | 0 mm | - | - | - |
| 1777532742 | 13.89° C | 38% | 1027.5 hPa | 0 mm | - | - | - |
| 1777532442 | 13.89° C | 39% | 1027.6 hPa | 0 mm | - | - | - |
| 1777532142 | 13.89° C | 37% | 1027.7 hPa | 0 mm | - | - | - |
| 1777531541 | 13.89° C | 38% | 1027.5 hPa | 0 mm | - | - | - |
| 1777531241 | 13.33° C | 41% | 1027.6 hPa | 0 mm | - | - | - |
| 1777530941 | 12.78° C | 42% | 1027.5 hPa | 0 mm | - | - | - |
| 1777530641 | 12.78° C | 42% | 1027.7 hPa | 0 mm | - | - | - |
* Rain latest hour (hover to see other rain measurements)
** Current wind speed in m/s (hover to see current wind gust speed)